GW0368 Weather Reports


time (UTC)temp
C
wind
direction
speed
KPH
gust
KPH
rain 1hr
cm
rain 24hr
cm
rain mn
cm
humidity
%
barometer
mb
20260505230054 25 169 3.2 12.9 0.00 0.00 0.00 54 1015.3
20260505224559 25 200 6.4 19.3 0.00 0.00 0.00 54 1015.4
20260505223049 25 190 4.8 30.6 0.00 0.00 0.00 53 1015.5
20260505221601 26 242 6.4 16.1 0.00 0.00 0.00 52 1015.7
20260505220107 26 238 8.0 22.5 0.00 0.00 0.00 51 1015.6
20260505214512 26 130 3.2 25.7 0.00 0.00 0.00 51 1015.6
20260505213018 26 168 3.2 17.7 0.00 0.00 0.00 51 1015.5
20260505211524 26 315 3.2 17.7 0.00 0.00 0.00 52 1015.6
20260505210058 26 259 12.9 25.7 0.00 0.00 0.00 52 1016.0
20260505204540 26 311 8.0 19.3 0.00 0.00 0.00 51 1015.9
20260505203048 26 213 3.2 24.1 0.00 0.00 0.00 52 1015.8
20260505201550 26 105 3.2 16.1 0.00 0.00 0.00 52 1015.8
20260505200034 26 298 8.0 19.3 0.00 0.00 0.00 50 1016.1
20260505194542 26 215 8.0 19.3 0.00 0.00 0.00 50 1016.4
20260505193058 26 290 4.8 17.7 0.00 0.00 0.00 52 1016.6
20260505191601 26 188 3.2 14.5 0.00 0.00 0.00 52 1016.9
20260505190040 26 208 4.8 16.1 0.00 0.00 0.00 52 1017.1
20260505184510 26 15 6.4 16.1 0.00 0.00 0.00 52 1017.3
20260505183018 25 252 8.0 16.1 0.00 0.00 0.00 52 1017.6
20260505181533 25 243 11.3 19.3 0.00 0.00 0.00 52 1017.6
20260505180042 25 78 8.0 16.1 0.00 0.00 0.00 55 1017.6
20260505174609 25 256 4.8 19.3 0.00 0.00 0.00 56 1017.7
20260505173103 25 200 4.8 16.1 0.00 0.00 0.00 58 1017.6
20260505171604 25 291 8.0 16.1 0.00 0.00 0.00 58 1017.8
20260505170035 24 161 6.4 16.1 0.00 0.00 0.00 60 1017.9
20260505164532 24 201 4.8 17.7 0.00 0.00 0.00 61 1018.1
20260505163035 23 133 4.8 17.7 0.00 0.00 0.00 62 1018.2
20260505161528 23 225 6.4 19.3 0.00 0.00 0.00 64 1018.3
20260505153052 22 229 11.3 17.7 0.00 0.00 0.00 66 1018.8
20260505151545 21 268 8.0 17.7 0.00 0.00 0.00 67 1018.9
20260505124554 16 210 4.8 14.5 0.00 0.00 0.00 79 1019.0
20260505123057 15 176 4.8 11.3 0.00 0.00 0.00 79 1018.9
20260505121523 15 292 3.2 9.7 0.00 0.00 0.00 79 1018.9
20260505120045 14 223 3.2 11.3 0.00 0.00 0.00 80 1018.9
20260505114525 13 217 0.0 4.8 0.00 0.00 0.00 80 1018.8
20260505113034 13 230 0.0 6.4 0.00 0.00 0.00 81 1018.7
20260505111551 12 193 0.0 3.2 0.00 0.00 0.00 81 1018.5
20260505101537 12 186 0.0 1.6 0.00 0.00 0.00 77 1017.7
20260505100052 12 186 0.0 4.8 0.00 0.00 0.00 77 1017.6
20260505094548 12 229 0.0 1.6 0.00 0.00 0.00 77 1017.5
20260505093045 12 229 0.0 4.8 0.00 0.00 0.00 77 1017.5
20260505091559 12 229 1.6 3.2 0.00 0.00 0.00 77 1017.4
20260505090033 13 230 0.0 3.2 0.00 0.00 0.00 75 1017.1
20260505084523 13 230 0.0 3.2 0.00 0.00 0.00 75 1017.1
20260505083047 13 235 0.0 6.4 0.00 0.00 0.00 76 1017.0
20260505081546 14 218 0.0 3.2 0.00 0.00 0.00 74 1016.8
20260505080042 14 246 0.0 8.0 0.00 0.00 0.00 74 1016.8
20260505074527 14 217 1.6 6.4 0.00 0.00 0.00 74 1016.7
20260505073043 14 205 1.6 8.0 0.00 0.00 0.00 73 1016.7
20260505071536 15 177 1.6 8.0 0.00 0.00 0.00 73 1016.7
20260505070053 15 225 1.6 11.3 0.00 0.00 0.00 72 1016.8
20260505064556 15 243 1.6 6.4 0.00 0.00 0.00 72 1016.8
20260505063101 15 221 1.6 8.0 0.00 0.00 0.00 72 1016.8
20260505061525 15 232 1.6 11.3 0.00 0.00 0.00 71 1016.8
20260505060139 15 236 1.6 12.9 0.00 0.00 0.00 71 1016.9
20260505054600 16 225 1.6 6.4 0.00 0.00 0.00 70 1017.0
20260505053034 16 227 3.2 11.3 0.00 0.00 0.00 70 1017.1
20260505051555 16 247 3.2 9.7 0.00 0.00 0.00 69 1017.2
20260505041558 17 247 3.2 16.1 0.00 0.00 0.00 68 1017.2
20260505040049 17 161 3.2 12.9 0.00 0.00 0.00 68 1017.3
20260505034523 17 250 6.4 19.3 0.00 0.00 0.00 68 1017.2
20260505033032 17 238 3.2 11.3 0.00 0.00 0.00 67 1017.2
20260505031503 17 223 4.8 14.5 0.00 0.00 0.00 67 1017.3
20260505030016 17 213 1.6 9.7 0.00 0.00 0.00 65 1017.3
20260505024519 18 210 8.0 12.9 0.00 0.00 0.00 65 1017.2
20260505023105 18 248 6.4 19.3 0.00 0.00 0.00 65 1017.0
20260505021601 18 161 6.4 17.7 0.00 0.00 0.00 63 1017.1
20260505020059 19 221 3.2 14.5 0.00 0.00 0.00 63 1017.0
20260505014549 19 303 3.2 17.7 0.00 0.00 0.00 61 1016.8
20260505013059 20 219 4.8 19.3 0.00 0.00 0.00 60 1016.6
20260505011535 20 159 1.6 12.9 0.00 0.00 0.00 57 1016.3
20260505010018 20 26 1.6 3.2 0.00 0.00 0.00 52 1016.0
20260505004517 20 216 0.0 3.2 0.00 0.00 0.00 49 1015.7
20260505003018 21 213 0.0 4.8 0.00 0.00 0.00 48 1015.5
20260505001521 21 217 0.0 9.7 0.00 0.00 0.00 48 1015.6
20260505000053 22 69 1.6 8.0 0.00 0.00 0.00 48 1015.4
20260504234529 22 251 3.2 8.0 0.00 0.00 0.00 47 1015.2
20260504233010 23 230 1.6 8.0 0.00 0.00 0.00 45 1015.0
20260504231635 23 196 0.0 12.9 0.00 0.00 0.00 44 1014.9